TimeCST,TemperatureF,Dew PointF,Humidity,Sea Level PressureIn,VisibilityMPH,Wind Direction,Wind SpeedMPH,Gust SpeedMPH,PrecipitationIn,Events,Conditions,WindDirDegrees,DateUTC
12:53 AM,30.9,24.1,76,30.27,10.0,Calm,Calm,-,N/A,,Clear,0,2013-02-20 06:53:00
1:53 AM,33.1,25.0,72,30.26,10.0,NW,4.6,-,N/A,,Clear,310,2013-02-20 07:53:00
2:53 AM,34.0,21.9,61,30.25,10.0,North,5.8,-,N/A,,Clear,350,2013-02-20 08:53:00
3:53 AM,34.0,19.0,54,30.27,10.0,North,5.8,-,N/A,,Clear,360,2013-02-20 09:53:00
4:53 AM,33.1,16.0,50,30.28,10.0,North,5.8,-,N/A,,Clear,360,2013-02-20 10:53:00
6:53 AM,30.9,18.0,59,30.30,10.0,NE,4.6,-,N/A,,Clear,40,2013-02-20 12:53:00
7:53 AM,32.0,17.1,54,30.31,10.0,NE,9.2,-,N/A,,Clear,50,2013-02-20 13:53:00
8:53 AM,33.1,17.1,52,30.33,10.0,NE,5.8,-,N/A,,Clear,50,2013-02-20 14:53:00
9:53 AM,35.1,17.1,48,30.33,10.0,NNE,8.1,-,N/A,,Clear,20,2013-02-20 15:53:00
10:53 AM,36.0,16.0,44,30.34,10.0,NE,4.6,-,N/A,,Clear,50,2013-02-20 16:53:00
11:53 AM,36.0,17.1,46,30.33,10.0,North,4.6,-,N/A,,Partly Cloudy,360,2013-02-20 17:53:00
12:53 PM,37.9,16.0,41,30.30,10.0,NNE,3.5,-,N/A,,Partly Cloudy,20,2013-02-20 18:53:00
1:53 PM,37.9,16.0,41,30.30,10.0,ENE,4.6,-,N/A,,Partly Cloudy,70,2013-02-20 19:53:00
2:53 PM,39.0,15.1,38,30.29,10.0,ENE,3.5,-,N/A,,Mostly Cloudy,60,2013-02-20 20:53:00
3:53 PM,37.9,16.0,41,30.24,10.0,NE,4.6,-,N/A,,Overcast,50,2013-02-20 21:53:00
4:53 PM,39.0,15.1,38,30.23,10.0,ENE,6.9,-,N/A,,Mostly Cloudy,60,2013-02-20 22:53:00
5:53 PM,37.9,17.1,43,30.24,10.0,NE,5.8,-,N/A,,Mostly Cloudy,40,2013-02-20 23:53:00
6:53 PM,37.9,18.0,45,30.24,10.0,NE,5.8,-,N/A,,Overcast,50,2013-02-21 00:53:00
7:53 PM,37.9,18.0,45,30.22,10.0,NE,9.2,-,0.00,,Overcast,50,2013-02-21 01:53:00
8:53 PM,37.9,17.1,43,30.25,10.0,NE,8.1,-,N/A,,Overcast,50,2013-02-21 02:53:00
9:53 PM,37.0,18.0,46,30.22,10.0,ENE,5.8,-,N/A,,Overcast,70,2013-02-21 03:53:00
10:53 PM,37.0,19.0,48,30.22,10.0,ENE,5.8,-,N/A,,Overcast,60,2013-02-21 04:53:00
11:53 PM,37.0,19.9,50,30.22,10.0,NE,4.6,-,N/A,,Overcast,50,2013-02-21 05:53:00